GW4411 Weather Reports


time (UTC)temp
C
wind
direction
speed
KPH
gust
KPH
rain 1hr
cm
rain 24hr
cm
rain mn
cm
humidity
%
barometer
mb
20260503021809 26 76 1.6 8.0 0.00 0.08 0.03 68 1019.0
20260503021117 25 76 1.6 8.0 0.00 0.08 0.03 72 1019.1
20260503020005 24 96 3.2 11.3 0.00 0.08 0.03 72 1019.3
20260503015404 24 99 3.2 11.3 0.00 0.08 0.03 71 1019.6
20260503014505 24 105 4.8 14.5 0.00 0.08 0.03 72 1019.5
20260503013604 25 112 4.8 14.5 0.00 0.08 0.03 71 1019.6
20260503012703 25 146 1.6 9.7 0.00 0.08 0.03 72 1019.8
20260503011804 25 97 3.2 8.0 0.00 0.08 0.03 72 1020.2
20260503010904 25 94 3.2 8.0 0.00 0.08 0.03 74 1020.2
20260503010005 24 125 1.6 9.7 0.00 0.08 0.03 75 1020.4
20260503005409 24 149 4.8 14.5 0.00 0.08 0.03 73 1020.4
20260503004509 25 161 3.2 8.0 0.00 0.08 0.03 73 1020.5
20260503003603 25 161 4.8 16.1 0.00 0.08 0.03 73 1020.6
20260503002918 24 149 4.8 16.1 0.00 0.08 0.03 75 1020.7
20260503001808 23 131 4.8 16.1 0.00 0.23 0.03 76 1020.7
20260503000908 23 122 1.6 11.3 0.00 0.23 0.03 77 1020.8
20260503000010 24 174 3.2 9.7 0.00 0.23 0.03 77 1020.7
20260502235404 24 203 3.2 8.0 0.00 0.23 0.03 77 1020.6
20260502234506 23 197 3.2 8.0 0.00 0.23 0.03 79 1020.8
20260502233818 23 195 4.8 9.7 0.00 0.23 0.03 78 1020.9
20260502232703 22 202 4.8 9.7 0.00 0.23 0.03 79 1021.0
20260502231803 22 209 4.8 14.5 0.00 0.23 0.03 80 1021.1
20260502230903 22 193 3.2 9.7 0.00 0.23 0.03 81 1021.3
20260502230219 21 199 1.6 6.4 0.00 0.23 0.03 83 1021.1
20260502225619 21 202 1.6 6.4 0.00 0.23 0.03 84 1021.2
20260502224505 20 194 3.2 16.1 0.00 0.23 0.03 88 1021.1
20260502223609 20 204 4.8 9.7 0.00 0.23 0.03 90 1021.1
20260502222704 18 205 1.6 9.7 0.00 0.23 0.03 93 1021.1
20260502221804 18 202 1.6 9.7 0.00 0.23 0.03 96 1020.9
20260502220904 17 192 1.6 8.0 0.00 0.23 0.03 97 1020.8
20260502220219 17 207 0.0 6.4 0.00 0.23 0.03 97 1020.7
20260502215405 17 197 1.6 6.4 0.00 0.23 0.03 98 1020.7
20260502214505 17 203 1.6 6.4 0.00 0.23 0.03 98 1020.7
20260502213605 16 152 0.0 1.6 0.00 0.23 0.03 98 1020.6
20260502212708 16 183 1.6 6.4 0.00 0.23 0.03 98 1020.4
20260502211804 16 222 0.0 3.2 0.00 0.25 0.03 98 1020.5
20260502210904 15 0 0.0 0.0 0.00 0.25 0.03 98 1020.2
20260502210006 15 0 0.0 0.0 0.00 0.30 0.03 97 1020.3
20260502205409 15 0 0.0 0.0 0.00 0.33 0.03 98 1020.3
20260502204505 15 0 0.0 0.0 0.00 0.33 0.03 97 1020.0
20260502203819 15 229 0.0 1.6 0.00 0.33 0.03 97 1020.0
20260502202704 15 229 0.0 1.6 0.00 0.33 0.03 97 1019.8
20260502201804 15 0 0.0 0.0 0.00 0.41 0.03 97 1019.7
20260502201122 15 229 0.0 1.6 0.00 0.41 0.03 97 1019.8
20260502200010 15 0 0.0 0.0 0.00 0.41 0.03 97 1019.7
20260502195409 15 0 0.0 0.0 0.00 0.41 0.03 97 1019.6
20260502194505 15 229 0.0 1.6 0.00 0.41 0.03 97 1019.5
20260502193608 15 0 0.0 0.0 0.00 0.41 0.03 97 1019.4
20260502192704 15 0 0.0 0.0 0.00 0.41 0.03 97 1019.4
20260502191823 15 0 0.0 0.0 0.00 0.41 0.03 97 1019.5
20260502190904 15 229 0.0 1.6 0.00 0.41 0.03 97 1019.5
20260502190010 15 0 0.0 0.0 0.00 0.41 0.03 97 1019.5
20260502185404 15 0 0.0 0.0 0.00 0.41 0.03 97 1019.4
20260502184507 15 229 0.0 1.6 0.00 0.41 0.03 97 1019.3
20260502183606 15 0 0.0 0.0 0.00 0.41 0.03 97 1019.3
20260502182708 15 229 0.0 1.6 0.00 0.43 0.03 97 1019.5
20260502181805 15 0 0.0 0.0 0.00 0.48 0.03 97 1019.5
20260502180904 15 0 0.0 0.0 0.00 0.48 0.03 97 1019.5
20260502180224 15 229 0.0 3.2 0.00 0.48 0.03 97 1019.5
20260502163612 16 229 0.0 1.6 0.03 0.74 0.03 96 1019.9
20260502162713 16 225 0.0 3.2 0.00 0.71 0.00 96 1020.0
20260502161810 16 0 0.0 0.0 0.00 0.71 0.00 96 1019.9
20260502160906 17 0 0.0 0.0 0.00 0.71 0.00 96 1020.0
20260502151805 17 0 0.0 0.0 0.00 0.71 0.00 96 1020.4
20260502150904 17 0 0.0 0.0 0.00 0.71 0.00 96 1020.5
20260502150218 17 0 0.0 0.0 0.00 0.71 0.00 96 1020.6
20260502123603 19 214 0.0 3.2 0.00 0.76 0.71 96 1020.9
20260502122708 19 206 1.6 14.5 0.00 0.76 0.71 96 1021.0
20260502122023 19 213 1.6 6.4 0.00 0.76 0.71 96 1021.1
20260502121118 19 227 0.0 3.2 0.00 0.76 0.71 96 1021.2
20260502115413 19 0 0.0 0.0 0.00 0.84 0.71 96 1021.2
20260502113604 19 0 0.0 0.0 0.00 1.12 0.71 96 1021.1
20260502112704 19 0 0.0 0.0 0.00 1.24 0.71 96 1021.1
20260502111804 19 0 0.0 0.0 0.00 1.27 0.71 96 1021.0
20260502111117 19 0 0.0 0.0 0.00 1.37 0.71 96 1020.9
20260502110005 19 66 0.0 1.6 0.00 1.55 0.71 96 1021.1
20260502105404 19 66 0.0 1.6 0.00 1.57 0.71 96 1021.1
20260502104505 19 66 0.0 3.2 0.00 1.63 0.71 96 1021.0
20260502103603 19 200 1.6 6.4 0.00 1.65 0.71 95 1021.0
20260502102704 19 232 0.0 1.6 0.00 1.70 0.71 95 1021.1
20260502101804 19 0 0.0 0.0 0.00 1.75 0.71 95 1021.1
20260502100904 19 0 0.0 0.0 0.00 1.75 0.71 95 1021.0
20260502091119 20 0 0.0 0.0 0.03 1.75 0.71 94 1020.5
20260502070903 21 148 0.0 3.2 0.00 1.73 0.69 88 1019.3
20260502070005 21 153 0.0 3.2 0.00 1.73 0.69 87 1019.2
20260502065403 22 145 0.0 3.2 0.00 1.73 0.69 87 1019.3
20260502064506 22 152 1.6 6.4 0.00 1.73 0.69 87 1019.1
20260502063604 22 95 0.0 6.4 0.00 1.73 0.69 86 1019.1
20260502062704 22 122 4.8 16.1 0.00 1.73 0.69 86 1019.0
20260502061803 22 127 0.0 3.2 0.00 1.73 0.69 86 1019.0
20260502060904 22 140 0.0 6.4 0.00 1.73 0.69 86 1019.1
20260502060009 22 92 0.0 6.4 0.00 1.73 0.69 85 1019.2
20260502055404 22 114 1.6 6.4 0.00 1.73 0.69 84 1019.1
20260502054506 22 132 1.6 11.3 0.00 1.73 0.69 83 1019.3
20260502053609 23 125 8.0 24.1 0.00 1.73 0.69 82 1019.1
20260502052703 23 109 6.4 24.1 0.00 1.73 0.69 79 1019.0
20260502051804 23 99 1.6 9.7 0.00 1.73 0.69 82 1019.0
20260502050903 23 99 4.8 19.3 0.00 1.73 0.69 82 1019.1
20260502050225 23 96 6.4 16.1 0.00 1.73 0.69 81 1019.2
20260502045404 23 113 6.4 16.1 0.03 1.73 0.69 80 1019.2
20260502044505 24 121 8.0 22.5 0.03 1.73 0.69 80 1019.3
20260502043603 23 110 3.2 11.3 0.03 1.73 0.69 81 1019.2
20260502042703 24 108 6.4 19.3 0.03 1.73 0.69 79 1019.1
20260502041804 23 118 6.4 16.1 0.03 1.73 0.69 83 1019.0
20260502040904 22 109 6.4 16.1 0.03 1.73 0.69 85 1019.2
20260502040220 22 95 8.0 16.1 0.03 1.73 0.69 85 1019.1
20260502035404 25 112 8.0 16.1 0.00 1.70 0.66 77 1019.2
20260502034719 24 111 6.4 16.1 0.00 1.70 0.66 78 1019.2
20260502033818 23 99 3.2 11.3 0.00 1.70 0.66 81 1019.2
20260502032704 23 119 4.8 17.7 0.00 1.70 0.66 79 1019.3
20260502031804 24 134 4.8 16.1 0.00 1.70 0.66 77 1019.3
20260502030903 25 122 4.8 14.5 0.00 1.70 0.66 76 1019.3
20260502030005 25 94 6.4 16.1 0.00 1.70 0.66 74 1019.4
20260502025404 25 112 6.4 19.3 0.00 1.70 0.66 76 1019.5
20260502024505 24 117 8.0 17.7 0.00 1.70 0.66 76 1019.7
20260502023609 23 115 6.4 17.7 0.00 1.70 0.66 80 1019.9
20260502022705 23 114 9.7 27.4 0.00 1.70 0.66 78 1020.1